Weather History for Sheridan, WY

Change the Weather History Date:

Wednesday, November 21, 2012

  Actual Average Record
Temperature  
Mean Temperature 51 °F 30 °F  
Max Temperature 67 °F 43 °F 67 °F (2012)
Min Temperature 34 °F 17 °F -17 °F (1977)
Degree Days  
Heating Degree Days 14 35  
Month to date heating degree days 582 635  
Since 1 July heating degree days 1356 1543  
Cooling Degree Days 0 0  
Month to date cooling degree days 0 0  
Year to date cooling degree days 664 419  
Moisture  
Dew Point 32 °F    
Average Humidity 53    
Maximum Humidity 82    
Minimum Humidity 24    
Precipitation  
Precipitation 0.00 in 0.02 in 0.31 in (1983)
Month to date precipitation 0.42 0.52  
Year to date precipitation 8.36 13.41  
Sea Level Pressure  
Sea Level Pressure 29.77 in    
Wind  
Wind Speed 8 mph (WNW)    
Max Wind Speed 39 mph    
Max Gust Speed 46 mph    
Visibility 10 miles    
Events      
T = Trace of Precipitation, MM = Missing Value Source: NWS Daily Summary

Daily Weather History Graph

Daily Weather History Graph

Search for Another Location

Airport:

Trip Planner

Search our weather history database for the weather conditions in past years. The results will help you decide how hot, cold, wet, or windy it might be!

Date:

Astronomy

Nov. 21, 2012 Rise Set
Actual Time 7:13 AM MST 4:33 PM MST
Civil Twilight 6:41 AM MST 5:06 PM MST
Nautical Twilight 6:05 AM MST 5:41 PM MST
Astronomical Twilight 5:30 AM MST 6:16 PM MST
Moon 1:05 PM MST (11/21) 12:20 AM MST (11/21)
Length of Visible Light 10h 24m
Length of Day
9h 20m
Waxing Gibbous, 62% of the Moon is Illuminated
Nov 21
Waxing Gibbous
Nov 28
Full
Dec 6
Last Quarter
Dec 13
New
Dec 19
First Quarter

Hourly Weather History & Observations

Time (MST) Temp. Windchill Dew Point Humidity Pressure Visibility Wind Dir Wind Speed Gust Speed Precip Events Conditions
12:53 AM 53.1 °F - 30.9 °F 43% 29.79 in 10.0 mi Calm Calm - N/A   Clear
1:53 AM 46.9 °F - 32.0 °F 56% 29.82 in 10.0 mi NNE 6.9 mph - N/A   Clear
2:53 AM 43.0 °F 39.5 °F 33.1 °F 68% 29.81 in 10.0 mi NNW 5.8 mph - N/A   Clear
3:53 AM 43.0 °F 41.3 °F 33.1 °F 68% 29.82 in 10.0 mi North 3.5 mph - N/A   Clear
4:53 AM 39.2 °F - 32.0 °F 75% 29.81 in 10.0 mi Calm Calm - N/A   Clear
5:53 AM 37.0 °F 34.5 °F 30.9 °F 79% 29.82 in 10.0 mi SE 3.5 mph - N/A   Clear
6:53 AM 36.0 °F 30.3 °F 30.9 °F 82% 29.76 in 10.0 mi SSW 6.9 mph - N/A   Clear
7:53 AM 37.0 °F 34.5 °F 32.0 °F 82% 29.76 in 10.0 mi WNW 3.5 mph - N/A   Clear
8:53 AM 39.0 °F 34.8 °F 33.1 °F 79% 29.73 in 10.0 mi WNW 5.8 mph - N/A   Clear
9:53 AM 43.0 °F - 34.0 °F 71% 29.72 in 10.0 mi Calm Calm - N/A   Clear
10:53 AM 45.0 °F 41.2 °F 36.0 °F 71% 29.71 in 10.0 mi South 6.9 mph - N/A   Clear
11:53 AM 52.0 °F - 37.0 °F 57% 29.66 in 10.0 mi Calm Calm - N/A   Clear
12:53 PM 57.0 °F - 34.0 °F 42% 29.64 in 10.0 mi Calm Calm - N/A   Clear
1:53 PM 64.9 °F - 30.9 °F 28% 29.62 in 10.0 mi East 4.6 mph - N/A   Partly Cloudy
2:53 PM 66.0 °F - 28.9 °F 25% 29.62 in 10.0 mi Variable 3.5 mph - N/A   Partly Cloudy
3:53 PM 59.0 °F - 28.9 °F 32% 29.65 in 10.0 mi SW 11.5 mph - N/A   Clear
4:53 PM 53.1 °F - 30.0 °F 41% 29.70 in 10.0 mi WNW 10.4 mph - N/A   Partly Cloudy
5:53 PM 52.0 °F - 30.0 °F 43% 29.73 in 10.0 mi West 9.2 mph - N/A   Partly Cloudy
6:53 PM 46.0 °F 37.4 °F 35.1 °F 66% 29.84 in 10.0 mi NNW 25.3 mph 38.0 mph N/A   Mostly Cloudy
7:53 PM 42.1 °F 35.2 °F 35.1 °F 76% 29.87 in 10.0 mi West 12.7 mph - N/A   Partly Cloudy
8:53 PM 44.1 °F 38.6 °F 35.1 °F 71% 29.86 in 10.0 mi West 10.4 mph - N/A   Overcast
9:53 PM 44.1 °F 36.2 °F 33.1 °F 65% 29.87 in 10.0 mi WNW 18.4 mph - N/A   Mostly Cloudy
10:53 PM 39.9 °F 29.0 °F 30.9 °F 70% 29.89 in 10.0 mi WNW 26.5 mph 34.5 mph N/A   Scattered Clouds
11:53 PM 36.0 °F 23.9 °F 30.0 °F 79% 29.95 in 10.0 mi NW 25.3 mph 33.4 mph N/A   Scattered Clouds